Location: Leganes-MADRID
(40.3441°N, 3.7527°W)
Time: 18:37:07
(UTC+02:00)

ISS - Visible Passes

Search period start: 30 March 2017 00:00
Search period end: 09 April 2017 00:00
Orbit: 399 x 409 km, 51.6° (Epoch: 31 March)

Date Brightness Start Highest point End Pass type
(mag) Time Alt. Az. Time Alt. Az. Time Alt. Az.
30 Mar -1.5 22:23:39 10° WNW 22:26:15 22° NNW 22:27:59 15° NNE visible
31 Mar -2.1 21:30:43 10° W 21:33:40 32° NNW 21:36:39 10° NE visible
31 Mar -0.7 23:09:23 10° NW 23:10:42 13° NNW 23:10:42 13° NNW visible
01 Apr -1.0 22:16:12 10° NW 22:18:11 15° NNW 22:20:11 10° NNE visible
02 Apr -1.3 21:23:03 10° WNW 21:25:30 19° NNW 21:27:58 10° NNE visible
02 Apr -0.8 23:01:45 10° NNW 23:02:58 12° N 23:03:01 12° N visible
03 Apr -1.0 22:08:47 10° NNW 22:10:11 12° N 22:11:35 10° NNE visible
04 Apr -1.1 21:15:35 10° NW 21:17:24 14° NNW 21:19:13 10° NNE visible
04 Apr -1.0 22:53:26 10° NNW 22:54:57 12° N 22:55:00 12° N visible
05 Apr -1.0 22:00:56 10° NNW 22:02:09 12° N 22:03:22 10° NNE visible
05 Apr -0.4 23:36:58 10° NNW 23:37:13 11° NNW 23:37:13 11° NNW visible
06 Apr -1.4 22:44:43 10° NNW 22:46:47 16° NNE 22:46:47 16° NNE visible
07 Apr -1.2 21:52:25 10° NNW 21:54:03 13° N 21:55:41 10° NE visible
07 Apr -0.8 23:28:10 10° NW 23:28:59 16° NNW 23:28:59 16° NNW visible
08 Apr -2.0 22:35:51 10° NNW 22:38:32 23° NNE 22:38:32 23° NNE visible
